Preview of NWS' New Version of Forecast
This preview is not operational and should not be used for support decisions.

Regional Weather Roundup (RWR)

Issued by National Weather Service (NWS)

                            
000
ASUS46 KSEW 160510
RWRWA 

WASHINGTON REGIONAL WEATHER ROUNDUP
NATIONAL WEATHER SERVICE SEATTLE WA
1000 PM PDT MON JUL 15 2019

NOTE:"FAIR" INDICATES FEW OR NO CLOUDS BELOW 12,000 FEET WITH NO 
SIGNIFICANT WEATHER AND/OR OBSTRUCTIONS TO VISIBILITY.

WAZ507-509-555>559-160600-
SEATTLE, TACOMA, EVERETT, AND VICINITY
  
CITY           SKY/WX    TMP DP  RH WIND       PRES   REMARKS
EVERETT        CLOUDY    63  55  75 N7        30.07R                  
BOEING FIELD   MOCLDY    69  57  65 CALM      30.04S                  
RENTON         CLOUDY    69  59  70 CALM      30.04S                  
SEATAC AIRPORT MOCLDY    67  57  70 SW3       30.05S                  
JBLM-MCCHORD   CLOUDY    66  65  99 SW5       30.05S                  
PUYALLUP       CLOUDY    63  63 100 CALM      30.06S                  
BREMERTON      PTCLDY    61  58  90 CALM      30.06R                  
JBLM-FT LEWIS  NOT AVBL                                               
TACOMA NARROWS MOCLDY    64  58  80 SW5       30.06R                  
$$
 
WAZ001-503-506-510-514-515-160600-
NORTH INTERIOR
  
CITY           SKY/WX    TMP DP  RH WIND       PRES   REMARKS
BELLINGHAM     CLEAR     66  55  67 S7        30.03S                  
FRIDAY HARBOR  PTCLDY    53  50  89 CALM      30.04S                  
EASTSOUND      CLEAR     63  55  77 S12       30.01S                  
PORT ANGELES   PTCLDY    60  56  86 W9        30.06S                  
EDIZ HOOK      MOCLDY    62  56  82 W9        30.05S                  
PORT TOWNSEND  CLOUDY    61  55  82 CALM      30.04S                  
NAS WHIDBEY    PTCLDY    60  54  80 CALM      30.08S                  
ARLINGTON      PTCLDY    64  55  72 NW5       30.06R                  
BURLINGTON     PTCLDY    61  55  82 CALM      30.05S                  
$$
 
WAZ020-022-039-040-504-511-512-160600-
SOUTHWEST INTERIOR
  
CITY           SKY/WX    TMP DP  RH WIND       PRES   REMARKS
SHELTON        CLEAR     62  58  86 SW3       30.03R                  
OLYMPIA        CLOUDY    65  61  87 S6        30.05S                  
CHEHALIS       CLOUDY    64  64 100 CALM      30.06S                  
KELSO          CLOUDY    66  61  84 NW5       30.06R                  
VANCOUVER      MOCLDY    70  60  70 NW5       30.03R                  
SCAPPOOSE, OR  MOCLDY    67  61  81 N5        30.03R                  
PORTLAND, OR   MOCLDY    71  61  70 NW8       30.03S                  
$$
 
WAZ021-516-517-160600-
WASHINGTON COAST
  
CITY           SKY/WX    TMP DP  RH WIND       PRES   REMARKS
FORKS          PTCLDY    60  57  89 CALM      30.06S                  
HOQUIAM        CLOUDY    65  61  87 NW5       30.06S                  
ASTORIA, OR    CLOUDY   N/A N/A N/A SW6       30.05S                  
$$
 
WAZ019-023-024-040-567>569-160600-
CASCADE MOUNTAINS AND COLUMBIA GORGE
  
CITY           SKY/WX    TMP DP  RH WIND       PRES   REMARKS
STAMPEDE PASS  CLOUDY    52  50  93 VRB5      30.11S FOG              
TROUTDALE, OR  MOCLDY    71  59  65 CALM      30.02S                  
HOOD RIVER, OR PTCLDY    68  55  64 NW8       30.03R                  
THE DALLES, OR CLEAR     71  55  56 W15       29.99S                  
$$

WAZ026-027-041>044-520-521-160600-
EAST SLOPES
  
CITY           SKY/WX    TMP DP  RH WIND       PRES   REMARKS
OMAK           MOCLDY    67  52  58 W7        29.94S                  
WENATCHEE      MOCLDY    69  49  48 W9        29.96R                  
ELLENSBURG     CLEAR     64  51  62 NW13      30.01R                  
YAKIMA         CLEAR     70  52  52 NW12      29.99R                  
SUNNYSIDE ARPT CLOUDY    70  56  60 W3        29.96                   
YAKIMA TC      MOCLDY    68  50  52 N3        29.99R                  
$$

WAZ028-034-035-160600-
COLUMBIA BASIN
  
CITY           SKY/WX    TMP DP  RH WIND       PRES   REMARKS
EPHRATA        PTCLDY    70  50  49 NW3       29.94R                  
MOSES LAKE     MOCLDY    74  51  44 S7        29.94S                  
PASCO          CLEAR     74  53  48 W8        29.93R                  
RICHLAND ARPT  CLEAR     74  54  48 MISG      29.93R                  
HERMISTON, OR  CLEAR     72  50  45 SW10      29.95R                  
$$

WAZ036>038-160600-
NORTHEAST WASHINGTON
  
CITY           SKY/WX    TMP DP  RH WIND       PRES   REMARKS
SPOKANE GEIGER PTCLDY    66  45  46 S3        30.01S                  
SPOKANE FELTS  CLOUDY    66  52  60 NE3       30.00S                  
FAIRCHILD AFB  PTCLDY    60  46  59 SE3       30.01S                  
COEURDALENE,ID CLOUDY    62  58  86 N5        30.02S                  
DEER PARK      MOCLDY    56  52  86 NE6       30.01S                  
$$

WAZ029>033-160600-
SOUTHEAST WASHINGTON
  
CITY           SKY/WX    TMP DP  RH WIND       PRES   REMARKS
PULLMAN        MOCLDY    62  53  72 CALM      30.05R                  
LEWISTON, ID   PTCLDY    67  55  65 CALM      30.00R                  
WALLA WALLA    CLEAR     69  52  54 E8        29.98R                  
PENDLETON, OR  CLEAR     68  47  46 MISG      29.99R                  
$$